This demonstration page uses our WeatherBlox Daily Observations layout. Learn more.

Left ArrowRight Arrow

39.01783, -85.05884

Hourly Observations for May 10, 2019

Temp ( °F °C ) Dew Point ( °F °C ) Humidity (%) Winds ( mph kmh ) Pressure ( in mb ) Visibility ( mi km ) Precip ( " mm )
12:52 am 00:52 Cloudy 64 17.8 62 16.7 93 93 SSW 9 15 29.88 1012 10 16 0.00 0.00
1:34 am 01:34 Cloudy 65 18.3 62 16.7 90 90 SSW 8 13 29.90 1013 10 16 0.00 0.00
1:52 am 01:52 Cloudy 65 18.3 62 16.7 90 90 SW 7 11 29.90 1012 9 14 0.00 0.00
2:39 am 02:39 Cloudy 65 18.3 62 16.7 90 90 WSW 7 11 29.90 1013 10 16 0.00 0.00
2:52 am 02:52 Cloudy 65 18.3 62 16.7 90 90 WSW 7 11 29.90 1012 10 16 0.00 0.00
3:25 am 03:25 Cloudy with Rain 65 18.3 62 16.7 90 90 W 9 15 29.91 1013 4 6 0.01 0.25
3:29 am 03:29 Cloudy with Heavy Rain 64 17.8 61 16.1 90 90 WNW 17 28 29.91 1013 2 3 0.07 1.78
3:34 am 03:34 Cloudy with Light Rain 63 17.2 60 15.6 90 90 WNW 14 22 29.93 1013 6 10 0.09 2.29
3:52 am 03:52 Cloudy 63 17.2 60 15.6 90 90 WNW 9 15 29.91 1013 10 16 0.09 2.29
4:10 am 04:10 Cloudy with Light Rain 62 16.7 60 15.6 93 93 W 8 13 29.94 1014 8 13 0.00 0.03
4:52 am 04:52 Cloudy 62 16.7 59 15 90 90 W 10 17 29.93 1014 9 14 0.00 0.03
5:07 am 05:07 Cloudy with Light Rain 61 16.1 59 15 93 93 W 9 15 29.95 1014 10 16 0.00 0.03
5:52 am 05:52 Cloudy 60 15.6 57 13.9 90 90 W 8 13 29.94 1014 10 16 0.00 0.03
6:01 am 06:01 Cloudy 60 15.6 56 13.3 86 86 W 10 17 29.95 1014 10 16 0.00 0.00
6:21 am 06:21 Cloudy 59 15 56 13.3 90 90 W 14 22 29.97 1015 10 16 0.00 0.00
6:41 am 06:41 Cloudy 59 15 55 12.8 87 87 W 10 17 29.98 1015 10 16 0.00 0.00
6:52 am 06:52 Cloudy 59 15 56 13.3 90 90 WNW 8 13 29.97 1015 10 16 0.00 0.00
7:24 am 07:24 Cloudy 58 14.4 54 12.2 87 87 W 9 15 30.00 1016 10 16 0.00 0.00
7:52 am 07:52 Cloudy with Light Rain 58 14.4 54 12.2 87 87 W 8 13 30.00 1016 8 13 0.00 0.03
8:17 am 08:17 Cloudy with Light Rain 57 13.9 54 12.2 90 90 WNW 12 19 30.02 1017 3 5 0.00 0.03
8:22 am 08:22 Cloudy with Light Rain 57 13.9 54 12.2 90 90 W 10 17 30.02 1017 2 3 0.01 0.25
8:52 am 08:52 Cloudy with Light Rain 57 13.9 55 12.8 93 93 WNW 9 15 30.01 1016 3 5 0.06 1.52
9:00 am 09:00 Cloudy with Light Rain 57 13.9 54 12.2 90 90 NW 12 19 30.03 1017 3 5 0.00 0.03
9:24 am 09:24 Cloudy with Mist and Fog 56 13.3 53 11.7 90 90 NW 10 17 30.04 1017 3 5 0.00 0.03
9:52 am 09:52 Cloudy with Light Rain 55 12.8 52 11.1 90 90 WNW 9 15 30.05 1018 3 5 0.00 0.03
10:09 am 10:09 Cloudy with Light Rain 55 12.8 52 11.1 90 90 WNW 10 17 30.07 1018 2 3 0.01 0.25
10:29 am 10:29 Cloudy with Light Rain 55 12.8 52 11.1 90 90 WNW 9 15 30.08 1019 6 10 0.03 0.76
10:52 am 10:52 Cloudy 56 13.3 52 11.1 87 87 WNW 8 13 30.06 1018 9 14 0.03 0.76
11:32 am 11:32 Cloudy 56 13.3 52 11.1 87 87 WNW 12 19 30.09 1019 8 13 0.00 0.00
11:52 am 11:52 Cloudy 57 13.9 51 10.6 81 81 WNW 9 15 30.07 1018 10 16 0.00 0.00
12:52 pm 12:52 Cloudy 58 14.4 51 10.6 78 78 W 8 13 30.07 1018 8 13 0.00 0.00
1:14 pm 13:14 Cloudy 58 14.4 50 10 75 75 WNW 13 20 30.09 1019 10 16 0.00 0.00
1:52 pm 13:52 Cloudy 61 16.1 50 10 67 67 W 10 17 30.07 1018 10 16 0.00 0.00
2:52 pm 14:52 Cloudy 61 16.1 49 9.4 65 65 WNW 12 19 30.09 1019 10 16 0.00 0.00
3:52 pm 15:52 Cloudy 60 15.6 49 9.4 67 67 NNW 9 15 30.09 1019 10 16 0.00 0.00
4:52 pm 16:52 Cloudy 58 14.4 47 8.3 67 67 NNW 13 20 30.09 1019 10 16 0.00 0.00
5:52 pm 17:52 Cloudy 58 14.4 46 7.8 65 65 NW 12 19 30.09 1019 10 16 0.00 0.00
6:52 pm 18:52 Cloudy 56 13.3 45 7.2 67 67 N 10 17 30.11 1020 10 16 0.00 0.00
7:52 pm 19:52 Cloudy 56 13.3 44 6.7 65 65 N 8 13 30.10 1019 10 16 0.00 0.00
8:52 pm 20:52 Mostly Cloudy 55 12.8 44 6.7 67 67 N 10 17 30.11 1020 10 16 0.00 0.00
9:52 pm 21:52 Mostly Cloudy 53 11.7 44 6.7 72 72 N 9 15 30.12 1020 10 16 0.00 0.00
11:52 pm 23:52 Cloudy 51 10.6 43 6.1 74 74 N 6 9 30.14 1021 10 16 0.00 0.00

Powered by AerisWeather